This demonstration page uses our WeatherBlox Daily Observations layout. Learn more.

Left ArrowRight Arrow

Hourly Observations for March 29, 2016

Temp ( °F °C ) Dew Point ( °F °C ) Humidity (%) Winds ( mph kmh ) Pressure ( in mb ) Visibility ( mi km ) Precip ( " mm )
12:54 am 00:54 Clear 52 11.1 29 -1.7 41 41 SSE 17 28 30.03 1017 10 16 0.00 0.00
1:54 am 01:54 Clear 50 10 30 -1.1 46 46 SSE 15 24 30.02 1017 10 16 0.00 0.00
2:54 am 02:54 Clear 50 10 30 -1.1 46 46 SSE 16 26 30.02 1017 10 16 0.00 0.00
3:54 am 03:54 Clear 48 8.9 30 -1.1 50 50 SSE 13 20 30.02 1017 10 16 0.00 0.00
4:54 am 04:54 Clear 50 10 30 -1.1 46 46 SSE 14 22 30.00 1016 10 16 0.00 0.00
5:54 am 05:54 Mostly Cloudy 50 10 29 -1.7 44 44 SSE 15 24 30.00 1016 10 16 0.00 0.00
6:54 am 06:54 Mostly Clear 49 9.4 29 -1.7 46 46 SSE 15 24 30.01 1016 10 16 0.00 0.00
7:54 am 07:54 Mostly Sunny 48 8.9 30 -1.1 50 50 SSE 14 22 30.02 1017 10 16 0.00 0.00
8:54 am 08:54 Sunny 49 9.4 30 -1.1 48 48 SSE 13 20 30.02 1017 10 16 0.00 0.00
9:54 am 09:54 Sunny 52 11.1 32 0 47 47 SSE 14 22 30.01 1016 10 16 0.00 0.00
10:54 am 10:54 Mostly Cloudy 56 13.3 34 1.1 44 44 SSE 17 28 29.99 1016 10 16 0.00 0.00
11:54 am 11:54 Mostly Cloudy 61 16.1 35 1.7 38 38 SE 28 44 29.97 1015 10 16 0.00 0.00
12:54 pm 12:54 Cloudy 65 18.3 34 1.1 32 32 SSE 25 41 29.92 1013 10 16 0.00 0.00
1:54 pm 13:54 Cloudy 64 17.8 32 0 30 30 SSE 24 39 29.90 1013 10 16 0.00 0.00
2:54 pm 14:54 Cloudy 64 17.8 32 0 30 30 SSE 25 41 29.87 1012 10 16 0.00 0.00
3:54 pm 15:54 Cloudy 64 17.8 33 0.6 32 32 SSE 23 37 29.85 1011 10 16 0.00 0.00
4:54 pm 16:54 Cloudy 64 17.8 30 -1.1 28 28 SSE 26 43 29.83 1010 10 16 0.00 0.00
5:54 pm 17:54 Cloudy 64 17.8 27 -2.8 25 25 SE 22 35 29.79 1009 10 16 0.00 0.00
6:54 pm 18:54 Cloudy 63 17.2 29 -1.7 28 28 SSE 22 35 29.77 1008 10 16 0.00 0.00
7:54 pm 19:54 Cloudy 63 17.2 30 -1.1 29 29 SSE 20 31 29.77 1008 10 16 0.00 0.00
8:54 pm 20:54 Cloudy 63 17.2 30 -1.1 29 29 SSE 23 37 29.75 1008 10 16 0.00 0.00
9:54 pm 21:54 Cloudy 62 16.7 32 0 32 32 SSE 17 28 29.76 1008 10 16 0.00 0.00
10:54 pm 22:54 Cloudy 62 16.7 32 0 32 32 SSE 24 39 29.75 1007 10 16 0.00 0.00
11:54 pm 23:54 Cloudy 61 16.1 32 0 34 34 SSE 17 28 29.71 1006 10 16 0.00 0.00

Powered by AerisWeather